Flag for U.S.A. Weather past 2 weeks in Vevay, Indiana, U.S.A.

Now
77 °F

Partly sunny.


Feels Like: 79 °F
Forecast: 68 / 85 °F
Wind: 5 mph from South

Location: Cincinnati / Northern Kentucky International Airport

Current Time: Aug 29, 2015 at 8:15:52 PM

Latest Report: Aug 29, 2015 at 6:52 PM


Visibility: 10 mi

Pressure: 30.04 "Hg

Humidity: 77%

Dew point: 69 °F

Location of VevayLocation

Historic Weather in Vevay — Graph

°F

Vevay temperature yesterday

Maximum temperature yesterday: 80 °F (at 2:52 PM)
Minimum temperature yesterday: 56 °F (at 6:52 AM)
Average temperature yesterday: 69 °F

Past Weeks' High & Low Weather Summary

 TemperatureHumidityPressure
High89 °F (Aug 16, 4:52 PM)100% (Aug 15, 6:57 AM)30.19 "Hg (Aug 15, 6:57 AM)
Low54 °F (Aug 25, 6:52 AM)35% (Aug 25, 1:52 PM)29.77 "Hg (Aug 19, 8:52 PM)
Average71 °F71%30.04 "Hg
* Reported Aug 14 6:52 PM — Aug 29 6:52 PM, Vevay, Weather by CustomWeather, © 2015

Note: Actual official high and low records may vary slightly from our data, if they occured in-between our weather recording intervals... More about our weather records

Advertising

Vevay weather history for previous 24 hours

 ConditionsComfort  
Time TempWeatherWind HumidityBarometerVisibility
6:52 PM
Sat, Aug 29
77 °FPartly sunny.5 mph77%30.04 "Hg10 mi
5:52 PM74 °FPartly sunny.3 mph88%30.03 "Hg8 mi
4:52 PM79 °FThunderstorms. Broken clouds.14 mph67%30.06 "Hg10 mi
3:52 PM80 °FBroken clouds.7 mph69%30.05 "Hg9 mi
2:52 PM85 °FBroken clouds.9 mph51%30.06 "Hg10 mi
1:52 PM85 °FBroken clouds.9 mph55%30.09 "Hg10 mi
12:52 PM83 °FScattered clouds.6 mph63%30.11 "Hg10 mi
11:52 AM81 °FScattered clouds.7 mph65%30.12 "Hg10 mi
10:52 AM78 °FScattered clouds.9 mph69%30.12 "Hg10 mi
8:52 AM71 °FScattered clouds.9 mph78%30.13 "Hg10 mi
7:52 AM68 °FPartly cloudy.9 mph82%30.12 "Hg10 mi
6:52 AM67 °FPassing clouds.8 mph81%30.10 "Hg10 mi
5:52 AM67 °FPassing clouds.3 mph79%30.09 "Hg10 mi
4:52 AM68 °FOvercast.7 mph73%30.09 "Hg10 mi
2:52 AM67 °FClear.3 mph73%30.09 "Hg10 mi
1:52 AM66 °FClear.3 mph75%30.11 "Hg10 mi
12:52 AM66 °FClear.6 mph75%30.11 "Hg10 mi
10:52 PM
Fri, Aug 28
67 °FPassing clouds.5 mph76%30.11 "Hg10 mi
9:52 PM69 °FPassing clouds.5 mph68%30.11 "Hg10 mi
8:52 PM70 °FPartly sunny.5 mph66%30.09 "Hg10 mi
Weather by CustomWeather, © 2015

See weather overviewHow to use our weather pages